When you browse on this site, cookies collect data to enhance your experience and personalize the content and advertising you see.
Visit our Privacy Policy to learn more. By continuing to use the site, you agree to this use of cookies and data.
  • En España
  • Lista de países
  • Para 7 días
  • Temperatura del agua
  • Mapa Satelital
  • El tiempo en el mapa
  • Informadores
  • user-avatar
    Iniciar sesión

    Tiempo cada hora La Rioja

    Hoy, 12 Diciembre, Miércoles

    Tiempo Temperatura Precipitaciones Viento Presión Humedad
    00:00 +33°C° 0.2 mm 4 mps 712 mmHg 45%
    01:00 +32°C° 0.2 mm 4 mps 712 mmHg 48%
    02:00 +30°C° 0 mm 4 mps 713 mmHg 51%
    03:00 +30°C° 0.9 mm 4 mps 713 mmHg 57%
    04:00 +29°C° 0.9 mm 4 mps 713 mmHg 63%
    05:00 +28°C° 0.9 mm 4 mps 714 mmHg 69%
    06:00 +28°C° 1.1 mm 4 mps 714 mmHg 69%
    07:00 +28°C° 1.1 mm 3 mps 714 mmHg 68%
    08:00 +29°C° 0 mm 3 mps 715 mmHg 64%
    09:00 +30°C° 0.1 mm 3 mps 715 mmHg 60%
    10:00 +31°C° 0.1 mm 3 mps 715 mmHg 55%
    11:00 +33°C° 0.1 mm 4 mps 714 mmHg 50%
    12:00 +33°C° 0 mm 4 mps 713 mmHg 49%
    13:00 +34°C° 0 mm 4 mps 713 mmHg 47%
    14:00 +35°C° 0 mm 4 mps 712 mmHg 46%
    15:00 +35°C° 0 mm 5 mps 711 mmHg 47%
    16:00 +35°C° 0 mm 5 mps 711 mmHg 47%
    17:00 +35°C° 0 mm 5 mps 710 mmHg 48%
    18:00 +34°C° 0 mm 5 mps 710 mmHg 52%
    19:00 +33°C° 0 mm 5 mps 710 mmHg 57%
    20:00 +32°C° 0 mm 5 mps 711 mmHg 61%
    21:00 +32°C° 0.4 mm 4 mps 711 mmHg 65%
    22:00 +30°C° 0.4 mm 4 mps 711 mmHg 69%
    23:00 +29°C° 0.4 mm 3 mps 711 mmHg 72%

    Mañana, 13 Diciembre, Jueves

    Tiempo Temperatura Precipitaciones Viento Presión Humedad
    00:00 +29°C° 0 mm 3 mps 711 mmHg 74%
    01:00 +29°C° 0 mm 3 mps 710 mmHg 76%
    02:00 +28°C° 0 mm 3 mps 709 mmHg 78%
    03:00 +28°C° 0 mm 3 mps 709 mmHg 79%
    04:00 +28°C° 0 mm 3 mps 709 mmHg 79%
    05:00 +27°C° 0 mm 3 mps 709 mmHg 80%
    06:00 +28°C° 0 mm 2 mps 709 mmHg 76%
    07:00 +29°C° 0 mm 2 mps 709 mmHg 71%
    08:00 +30°C° 0 mm 2 mps 709 mmHg 67%
    09:00 +31°C° 0 mm 2 mps 708 mmHg 59%
    10:00 +34°C° 0 mm 2 mps 708 mmHg 52%
    11:00 +36°C° 0 mm 2 mps 707 mmHg 44%
    12:00 +37°C° 0 mm 3 mps 706 mmHg 40%
    13:00 +38°C° 0 mm 3 mps 706 mmHg 36%
    14:00 +40°C° 0 mm 3 mps 705 mmHg 33%
    15:00 +40°C° 0 mm 3 mps 704 mmHg 31%
    16:00 +42°C° 0 mm 3 mps 704 mmHg 29%
    17:00 +42°C° 0 mm 4 mps 703 mmHg 27%
    18:00 +40°C° 0 mm 3 mps 704 mmHg 30%
    19:00 +39°C° 0 mm 3 mps 704 mmHg 33%
    20:00 +37°C° 0 mm 2 mps 705 mmHg 37%
    21:00 +37°C° 0 mm 3 mps 705 mmHg 39%
    22:00 +36°C° 0 mm 3 mps 706 mmHg 41%
    23:00 +35°C° 0 mm 3 mps 706 mmHg 43%

    Pasado mañana, 14 Diciembre, Viernes

    Tiempo Temperatura Precipitaciones Viento Presión Humedad
    00:00 +35°C° 0 mm 3 mps 706 mmHg 43%
    01:00 +34°C° 0 mm 3 mps 706 mmHg 43%
    02:00 +34°C° 0 mm 4 mps 706 mmHg 43%
    03:00 +33°C° 0.2 mm 3 mps 706 mmHg 40%
    04:00 +31°C° 0.2 mm 3 mps 707 mmHg 37%
    05:00 +30°C° 0.2 mm 3 mps 707 mmHg 34%
    06:00 +31°C° 0 mm 3 mps 708 mmHg 32%
    07:00 +33°C° 0 mm 4 mps 709 mmHg 30%
    08:00 +35°C° 0 mm 4 mps 711 mmHg 28%
    09:00 +36°C° 0 mm 5 mps 711 mmHg 26%
    10:00 +37°C° 0 mm 5 mps 711 mmHg 24%
    11:00 +38°C° 0 mm 6 mps 712 mmHg 21%
    12:00 +39°C° 0 mm 6 mps 711 mmHg 22%
    13:00 +39°C° 0 mm 6 mps 711 mmHg 23%
    14:00 +39°C° 0 mm 5 mps 710 mmHg 24%
    15:00 +39°C° 0.1 mm 5 mps 710 mmHg 25%
    16:00 +39°C° 0.1 mm 5 mps 710 mmHg 27%
    17:00 +39°C° 0.1 mm 5 mps 710 mmHg 28%
    18:00 +36°C° 1 mm 5 mps 711 mmHg 33%
    19:00 +35°C° 1 mm 5 mps 712 mmHg 38%
    20:00 +34°C° 1 mm 5 mps 713 mmHg 44%
    21:00 +33°C° 2.1 mm 5 mps 714 mmHg 48%
    22:00 +30°C° 2.1 mm 4 mps 715 mmHg 53%
    23:00 +29°C° 2.1 mm 3 mps 715 mmHg 57%

    15 Diciembre, Sábado

    Tiempo Temperatura Precipitaciones Viento Presión Humedad
    00:00 +28°C° 0.4 mm 3 mps 715 mmHg 58%
    01:00 +28°C° 0.4 mm 3 mps 715 mmHg 59%
    02:00 +27°C° 0.4 mm 3 mps 715 mmHg 60%
    03:00 +26°C° 0.2 mm 3 mps 716 mmHg 61%
    04:00 +26°C° 0.2 mm 3 mps 716 mmHg 63%
    05:00 +25°C° 0.2 mm 3 mps 716 mmHg 65%
    06:00 +25°C° 0.2 mm 3 mps 716 mmHg 63%
    07:00 +26°C° 0.2 mm 3 mps 717 mmHg 60%
    08:00 +26°C° 0.2 mm 3 mps 717 mmHg 58%
    09:00 +27°C° 0 mm 3 mps 717 mmHg 53%
    10:00 +29°C° 0 mm 4 mps 716 mmHg 47%
    11:00 +30°C° 0 mm 4 mps 716 mmHg 42%
    12:00 +32°C° 0 mm 4 mps 715 mmHg 38%
    13:00 +33°C° 0 mm 5 mps 714 mmHg 34%
    14:00 +34°C° 0 mm 5 mps 713 mmHg 31%
    15:00 +34°C° 0 mm 6 mps 713 mmHg 30%
    16:00 +34°C° 0 mm 6 mps 712 mmHg 30%
    17:00 +35°C° 0 mm 6 mps 712 mmHg 30%
    18:00 +33°C° 0 mm 5 mps 712 mmHg 35%
    19:00 +32°C° 0 mm 5 mps 713 mmHg 41%
    20:00 +29°C° 0 mm 4 mps 713 mmHg 47%
    21:00 +29°C° 0 mm 4 mps 714 mmHg 51%
    22:00 +28°C° 0 mm 3 mps 714 mmHg 56%
    23:00 +27°C° 0 mm 2 mps 714 mmHg 60%

    16 Diciembre, Domingo

    Tiempo Temperatura Precipitaciones Viento Presión Humedad
    00:00 +26°C° 0 mm 2 mps 714 mmHg 63%
    01:00 +26°C° 0 mm 2 mps 713 mmHg 67%
    02:00 +25°C° 0 mm 2 mps 713 mmHg 70%
    03:00 +25°C° 0 mm 2 mps 713 mmHg 72%
    04:00 +25°C° 0 mm 1 mps 713 mmHg 74%
    05:00 +25°C° 0 mm 1 mps 713 mmHg 76%
    06:00 +25°C° 0 mm 1 mps 713 mmHg 73%
    07:00 +26°C° 0 mm 1 mps 713 mmHg 70%
    08:00 +27°C° 0 mm 1 mps 713 mmHg 67%
    09:00 +28°C° 0 mm 2 mps 713 mmHg 60%
    10:00 +30°C° 0 mm 2 mps 713 mmHg 54%
    11:00 +31°C° 0 mm 2 mps 713 mmHg 48%
    12:00 +33°C° 0.1 mm 3 mps 712 mmHg 45%
    13:00 +35°C° 0.1 mm 3 mps 712 mmHg 42%
    14:00 +36°C° 0.1 mm 4 mps 711 mmHg 38%
    15:00 +36°C° 0.6 mm 4 mps 711 mmHg 38%
    16:00 +36°C° 0.6 mm 4 mps 710 mmHg 38%
    17:00 +36°C° 0.6 mm 4 mps 710 mmHg 37%
    18:00 +35°C° 0.2 mm 4 mps 710 mmHg 41%
    19:00 +34°C° 0.2 mm 4 mps 711 mmHg 46%
    20:00 +33°C° 0.2 mm 4 mps 712 mmHg 50%
    21:00 +33°C° 1 mm 3 mps 712 mmHg 54%
    22:00 +31°C° 1 mm 2 mps 713 mmHg 59%
    23:00 +30°C° 1 mm 1 mps 713 mmHg 64%

    17 Diciembre, Lunes

    Tiempo Temperatura Precipitaciones Viento Presión Humedad
    00:00 +30°C° 0.2 mm 1 mps 713 mmHg 64%
    01:00 +29°C° 0.2 mm 1 mps 712 mmHg 65%
    02:00 +29°C° 0.2 mm 1 mps 712 mmHg 65%
    03:00 +29°C° 0 mm 1 mps 712 mmHg 63%
    04:00 +28°C° 0 mm 1 mps 712 mmHg 62%
    05:00 +28°C° 0 mm 1 mps 712 mmHg 60%
    06:00 +29°C° 0 mm 1 mps 713 mmHg 54%
    07:00 +30°C° 0 mm 1 mps 713 mmHg 48%
    08:00 +32°C° 0 mm 1 mps 714 mmHg 41%
    09:00 +34°C° 0 mm 2 mps 714 mmHg 37%
    10:00 +35°C° 0 mm 2 mps 714 mmHg 33%
    11:00 +37°C° 0 mm 3 mps 714 mmHg 29%
    12:00 +37°C° 0 mm 4 mps 714 mmHg 28%
    13:00 +38°C° 0 mm 4 mps 714 mmHg 28%
    14:00 +39°C° 0 mm 5 mps 713 mmHg 27%
    15:00 +39°C° 0.6 mm 5 mps 713 mmHg 30%
    16:00 +37°C° 0.6 mm 5 mps 713 mmHg 33%
    17:00 +36°C° 0.6 mm 5 mps 713 mmHg 35%
    18:00 +35°C° 2.4 mm 5 mps 714 mmHg 42%
    19:00 +33°C° 2.4 mm 5 mps 714 mmHg 48%
    20:00 +30°C° 2.4 mm 5 mps 715 mmHg 54%
    21:00 +29°C° 3.5 mm 4 mps 715 mmHg 57%
    22:00 +29°C° 3.5 mm 3 mps 716 mmHg 61%
    23:00 +28°C° 3.5 mm 3 mps 716 mmHg 64%
    Mostrar más